SCP
0 0 0 0 0 0 0 0 0 0 -0 -0 0 0 0 0 0 0 0 0 0 0 0 0 0 0 -0 0 0 0 0 0 0 0 0 0 1 1 1 1 1 1 1 1
0 0 0 0 0 0 0 0 0 0 0 0 0 0 0 0 0 0 0 0 0 0 0 0 0 0 0 -0 0 0 0 0 0 0 0 0 0 1 1 0 2 2 2 2
0 0 0 0 0 0 0 0 0 0 0 0 0 0 0 0 0 0 0 0 0 0 0 0 0 0 0 -0 -0 -0 0 0 0 0 0 0 0 1 1 1 1 0 0 0
0 0 0 0 0 0 0 0 0 0 0 0 0 0 0 0 0 0 0 0 0 0 0 0 0 0 0 0 -0 -0 -0 0 0 0 0 0 1 1 1 0 0 0 0 0
0 0 0 0 0 0 0 0 0 0 0 0 0 0 0 0 0 0 0 0 0 0 0 0 0 -0 -0 0 -0 -0 -0 0 0 0 0 0 1 1 0 0 0 0 0 0
0 0 0 0 0 0 0 -0 0 0 0 0 0 -0 0 0 0 0 0 0 -0 -0 -0 -0 -0 -0 -0 -0 -0 -0 -0 0 0 0 0 0 0 0 0 0 0 0 0 0
0 0 0 0 0 0 0 0 0 0 0 0 0 0 0 0 0 0 0 0 0 -0 -0 -0 -0 0 0 0 0 -0 0 0 0 0 0 0 0 0 0 0 0 0 0 0
0 0 0 0 0 0 0 0 0 0 0 0 -0 0 -0 0 0 0 0 0 -0 -0 -0 0 0 0 0 0 0 0 0 0 0 0 0 0 0 0 0 0 0 0 0 0
0 0 0 0 0 0 0 0 0 0 0 -0 -0 -0 -0 0 0 0 -0 -0 -0 0 0 0 -0 0 0 0 0 0 0 0 0 0 0 0 0 0 0 0 0 0 0 0
0 0 0 0 0 0 0 0 0 0 -0 -0 -0 -0 0 0 0 -0 -0 -0 0 -0 -0 -0 0 0 0 -0 0 0 0 0 0 0 0 0 0 0 0 0 0 0 0 0
0 0 -0 -0 0 0 0 0 0 0 -0 -0 -0 0 0 -0 -0 -0 -0 -0 -0 -0 -0 -0 -0 0 0 0 0 0 0 0 0 0 0 0 0 0 0 0 0 0 0 0
0 0 -0 -0 0 0 0 0 0 -0 -0 -0 -0 0 -0 -0 0 -0 -0 0 -0 -0 -0 -0 -0 0 0 0 -0 0 0 0 0 0 0 0 0 0 -0 -0 -0 0 0 0
0 0 -0 0 -0 -0 0 0 -0 -0 -0 -0 -0 -0 0 0 0 0 0 0 0 0 0 0 0 0 0 0 0 0 0 0 0 0 0 0 0 0 0 -0 -0 0 0 0
-0 0 -0 -0 -0 0 0 -0 -0 -0 -0 -0 -0 -0 0 0 0 0 0 0 0 0 0 0 0 0 0 0 0 0 0 0 0 0 0 0 0 -0 0 0 0 0 0 -0
0 -0 -0 -0 0 0 0 -0 0 0 -0 -0 0 -0 0 0 0 0 0 0 0 0 0 0 0 0 0 0 0 0 0 0 0 0 0 0 0 0 0 0 0 0 0 0
-0 -0 -0 0 0 0 0 0 0 0 -0 -0 0 0 0 0 0 0 0 0 0 0 0 0 0 0 0 0 0 0 0 -0 0 0 0 0 0 0 0 0 0 0 0 0
-0 0 -0 -0 -0 -0 0 0 0 -0 -0 0 0 0 0 0 0 0 0 0 0 0 0 0 0 0 0 0 0 0 0 0 0 0 0 0 0 0 0 0 0 0 0 0
0 0 -0 -0 0 -0 -0 -0 0 -0 0 0 0 0 0 0 0 0 0 0 0 0 0 0 0 0 0 0 0 0 0 0 0 0 0 0 0 0 0 0 0 0 0 0
-0 0 -0 0 0 0 -0 0 -0 -0 0 0 0 0 0 0 0 0 0 0 0 0 0 0 0 0 0 0 0 0 0 0 0 0 0 0 0 0 0 0 0 0 0 0
-0 -0 0 0 0 0 -0 -0 0 0 0 0 0 0 0 0 0 0 0 0 0 0 0 0 0 0 0 0 0 0 0 0 0 0 0 0 0 0 0 0 0 0 0 0
-0 -0 0 0 0 0 0 0 0 0 0 0 0 0 0 0 0 0 0 0 0 0 0 0 0 0 0 0 0 0 0 0 0 0 0 0 0 0 0 0 0 0 -0 -0
-0 0 0 0 0 0 0 0 0 0 0 0 0 0 0 0 0 0 0 0 0 0 0 0 0 0 0 0 0 0 0 0 0 0 0 0 0 0 0 -0 -0 -0 -0 -0
-0 -0 0 0 0 0 0 -0 0 0 0 0 0 0 0 0 0 0 0 0 0 0 0 0 0 0 0 0 0 0 0 0 0 0 0 0 0 -0 -0 -0 -0 -0 -0 -0
-0 -0 0 0 0 0 0 0 0 0 0 0 0 0 0 0 0 0 0 0 0 0 0 0 0 0 0 0 0 0 0 0 0 0 0 -0 -0 -0 -0 -0 -0 -0 -0 -0
-0 -0 0 0 0 0 0 0 0 0 0 0 0 0 0 0 0 0 0 0 0 0 0 0 0 0 0 0 0 0 0 0 0 -0 -0 -0 -0 -0 -0 -0 -0 -0 0 0
-0 -0 0 0 0 0 0 0 0 0 0 0 0 0 0 0 0 0 0 0 0 0 0 0 0 0 0 0 0 0 0 -0 -0 -0 -0 -0 -0 -0 -0 -0 -0 0 0 0
0 -0 -0 0 0 0 0 0 0 0 0 0 0 0 0 0 0 0 0 0 0 0 0 0 0 0 0 0 0 0 0 -0 -0 -0 -0 -0 -0 -0 -0 0 0 0 0 0
Wind_Speed_500mb
40 47 46 48 53 52 48 50 41 55 61 52 33 39 47 52 63 66 69 66 60 62 69 73 75 65 64 68 58 60 64 57 55 46 40 37 34 28 25 27 33 38 47 46
40 46 51 56 52 50 53 51 41 43 48 42 58 60 48 65 67 70 66 59 63 71 74 80 78 75 69 62 65 55 63 63 56 48 42 41 37 30 29 30 44 39 45 52
26 35 44 38 32 17 27 35 31 29 43 46 41 34 62 67 75 73 57 57 72 78 81 83 80 76 72 62 56 64 58 61 55 49 46 42 37 34 32 39 41 42 48 52
16 34 24 13 19 32 23 30 35 41 43 24 48 60 71 75 70 54 54 77 83 84 86 85 83 68 75 62 52 57 61 58 55 53 47 42 40 39 38 39 43 46 49 46
10 21 41 36 15 8 8 27 40 25 23 48 62 60 67 51 49 62 82 85 83 83 82 85 77 78 69 66 48 58 57 54 53 49 46 41 41 53 51 51 49 51 54 46
12 14 19 17 15 2 19 30 7 24 24 36 55 30 39 73 72 83 81 81 79 83 78 78 78 68 63 55 51 58 52 48 47 45 43 41 48 50 49 52 58 62 57 40
23 18 24 20 18 10 19 22 58 43 48 51 29 34 80 80 89 84 84 82 76 78 78 74 70 62 57 47 53 59 43 40 41 40 39 44 46 50 52 65 70 68 65 65
16 15 19 16 15 6 32 41 32 46 54 54 64 71 72 75 74 75 74 73 69 71 71 68 57 51 49 47 37 34 48 41 39 40 41 44 46 61 70 76 76 76 79 88
9 10 35 68 59 52 33 31 37 56 53 59 67 68 72 74 76 69 75 64 61 58 63 57 49 48 52 45 36 26 40 42 48 50 55 63 64 74 79 81 85 88 95 101
12 26 40 63 70 50 33 48 60 50 54 60 63 67 69 70 64 73 61 57 55 54 48 48 42 34 46 41 45 37 64 64 73 75 79 80 80 81 84 89 91 99 100 103
37 47 55 54 36 34 45 48 40 48 50 52 59 64 64 63 69 58 52 48 44 35 39 38 41 10 28 49 59 76 82 86 85 88 90 93 90 86 86 84 91 108 103 103
27 56 48 48 29 48 37 39 41 46 51 47 56 57 63 57 52 46 38 36 31 36 34 42 67 85 98 98 88 96 88 85 88 88 90 90 93 93 81 89 99 106 109 112
50 55 49 32 45 39 22 42 40 39 44 52 52 52 47 50 42 29 27 27 38 41 36 47 75 89 102 103 96 89 90 88 88 89 90 94 94 101 116 105 109 105 107 104
43 16 21 23 29 23 39 35 33 36 38 43 43 41 41 42 35 28 28 31 45 47 40 51 73 78 81 83 84 87 88 90 94 97 101 107 107 116 134 135 116 102 99 105
14 19 14 30 23 30 31 30 33 36 41 41 35 36 37 36 37 29 29 37 53 55 63 55 69 74 74 73 79 87 94 98 101 107 113 121 127 133 134 126 117 109 95 82
26 26 27 24 24 29 28 30 31 38 35 33 34 35 35 36 38 40 47 51 60 63 66 75 76 78 83 85 93 107 111 113 121 132 132 124 130 133 122 115 110 105 94 84
32 36 26 29 29 25 26 27 31 30 29 32 32 36 33 47 48 57 63 67 69 71 73 79 86 83 85 92 105 118 125 128 132 128 125 114 105 113 102 93 100 96 77 67
30 22 27 19 21 24 27 30 28 30 29 31 34 36 48 55 60 65 71 74 79 81 79 82 87 94 103 110 124 132 133 122 121 101 92 95 93 91 99 82 75 76 71 62
33 21 20 20 22 24 27 28 28 30 32 37 39 48 56 64 72 75 76 85 91 93 85 95 95 102 107 114 128 129 112 93 90 88 94 99 84 72 72 75 73 67 59 54
24 21 21 23 27 27 28 28 28 35 36 45 49 62 64 67 75 77 83 83 84 82 75 78 86 89 92 89 84 84 93 98 94 84 76 70 68 69 68 64 61 58 55 51
27 24 22 27 27 30 31 32 37 41 42 54 58 67 63 60 57 57 63 66 60 66 73 77 81 84 89 95 94 88 78 74 73 71 69 73 70 66 62 58 57 54 52 50
29 22 24 26 28 31 38 43 34 39 46 51 59 51 61 60 57 61 58 53 50 57 62 65 67 71 74 71 69 67 65 66 70 70 67 64 64 61 58 56 54 52 50 47
18 25 21 26 29 39 42 43 53 55 55 53 51 46 55 57 55 50 57 52 56 63 67 71 71 68 65 61 61 61 61 61 60 59 59 59 57 56 55 53 50 48 47 46
18 22 22 27 36 47 43 40 43 47 52 46 46 49 53 63 64 66 70 71 68 66 65 63 64 60 58 57 57 56 56 56 56 56 56 55 53 53 52 49 47 45 45 43
17 20 29 35 51 41 28 32 36 43 41 44 43 47 52 62 67 67 69 66 62 61 62 62 57 54 51 52 52 51 51 52 52 52 52 52 51 49 47 45 43 42 41 39
25 25 33 49 31 29 30 34 39 39 38 39 42 42 48 49 47 45 50 48 47 49 48 47 45 46 47 48 49 48 49 52 50 49 48 47 47 45 44 44 42 39 37 35
28 34 44 31 24 27 32 36 39 39 38 37 39 37 41 39 39 37 38 40 41 43 43 42 41 44 46 46 45 43 44 45 45 43 43 42 42 43 40 38 37 35 35 37
Wind_Direction_500mb
261 263 268 268 270 271 263 258 255 276 280 291 312 334 320 314 319 313 309 303 304 305 302 299 301 297 285 280 275 258 253 249 246 245 244 249 248 245 243 233 232 228 230 222
288 285 281 274 276 283 284 284 279 276 282 307 328 320 310 320 312 307 306 300 302 302 301 302 301 302 295 273 267 261 248 246 246 242 241 242 244 243 239 228 226 220 213 216
276 292 303 294 279 284 305 304 306 299 300 327 314 324 316 310 304 301 301 302 302 302 302 304 305 301 298 291 258 256 250 240 237 236 236 236 236 234 239 230 230 218 223 218
285 296 273 239 292 271 275 293 304 300 310 319 321 307 301 305 295 292 298 305 303 303 304 302 305 295 293 292 253 251 247 238 234 233 232 230 228 226 228 233 228 220 213 215
266 283 286 293 6 34 59 299 299 301 326 314 305 308 296 306 300 306 303 303 300 303 300 298 295 293 288 283 257 244 240 232 230 227 224 222 219 218 219 220 215 209 206 207
264 272 284 328 319 28 295 291 71 338 313 304 314 305 303 312 308 303 304 303 302 304 298 295 293 293 288 275 268 231 233 227 222 217 217 216 220 212 209 209 203 190 183 186
244 252 265 295 65 301 279 320 330 326 310 300 291 288 295 304 306 309 309 307 305 303 300 296 295 290 283 274 264 224 215 217 211 211 211 208 204 206 206 193 181 172 164 159
247 243 264 55 338 242 302 308 312 307 299 296 297 300 303 303 305 306 308 310 313 308 302 301 297 286 272 264 258 233 201 204 203 210 205 196 200 184 182 179 170 159 154 151
246 255 303 308 302 306 304 313 316 303 301 303 302 304 307 310 311 313 317 321 319 318 311 304 297 281 261 248 231 205 193 204 192 185 181 177 182 174 168 165 159 151 152 146
282 260 285 303 299 304 321 322 310 299 304 307 307 309 312 314 315 324 328 327 326 323 323 322 318 288 246 225 193 179 160 163 162 159 154 153 156 160 160 160 156 154 148 143
267 279 287 290 299 311 319 317 302 309 311 310 312 314 319 319 326 333 333 328 334 348 352 354 22 328 200 161 163 156 150 144 144 147 147 144 139 141 151 151 159 159 148 141
272 282 287 295 316 322 314 316 313 317 318 319 322 324 325 332 341 344 341 347 11 24 25 56 72 79 122 144 155 150 145 141 142 142 142 144 143 133 134 141 146 150 140 130
280 284 292 305 319 321 300 323 325 320 324 327 331 333 339 347 0 5 8 22 45 46 61 83 95 104 122 141 148 146 141 138 135 136 134 136 140 141 130 125 126 123 124 124
319 299 301 329 318 316 327 335 327 330 333 339 334 343 354 7 29 32 38 46 69 73 87 97 105 104 121 135 135 133 131 132 130 128 128 125 124 123 129 126 122 120 121 121
350 351 317 315 327 342 341 338 340 344 351 350 356 1 11 29 50 59 68 76 82 84 90 104 105 105 119 125 126 127 125 121 123 124 125 124 122 123 122 123 123 121 118 118
348 341 330 329 338 345 347 350 352 0 2 9 12 21 35 64 74 80 86 88 85 85 95 104 109 111 118 129 128 119 120 124 124 124 122 120 122 121 120 119 118 121 124 122
1 340 358 341 346 352 358 1 10 13 31 24 33 32 60 79 83 81 83 89 92 95 101 107 110 120 123 125 125 123 124 124 125 122 119 116 116 120 118 119 121 117 110 106
350 10 358 8 2 3 9 17 24 43 41 44 45 62 75 77 79 81 84 95 97 95 100 108 116 120 119 120 125 127 126 119 118 112 115 115 115 116 117 112 113 112 113 114
353 14 19 20 20 23 27 36 40 43 68 69 65 78 76 84 85 83 92 93 89 88 88 100 109 114 114 119 122 123 114 109 111 113 115 114 110 113 114 114 113 111 109 108
15 24 26 37 35 43 46 51 43 65 70 75 87 83 75 78 78 81 86 83 91 89 92 97 100 100 103 104 105 111 113 110 111 113 115 116 117 117 116 113 112 111 110 110
19 31 44 39 49 51 60 58 71 68 81 93 90 88 85 78 83 85 86 89 95 97 96 99 101 105 108 108 106 110 111 111 113 114 117 117 116 115 115 115 115 115 114 110
26 49 41 46 62 66 73 63 70 84 86 89 103 91 84 73 76 80 80 85 98 103 104 105 108 111 112 111 111 111 113 115 115 115 116 117 118 118 117 118 117 116 115 113
52 36 53 65 73 90 70 73 73 77 84 81 100 91 79 85 80 81 85 90 99 104 105 106 109 110 109 110 111 112 114 115 116 117 117 118 118 119 119 118 118 117 116 114
52 44 70 87 99 86 75 68 71 80 82 79 79 83 86 91 82 88 100 103 103 103 104 105 107 108 108 110 111 112 113 114 116 118 119 118 118 118 117 118 118 118 116 116
70 60 98 101 100 86 85 87 83 81 84 87 82 81 82 88 91 94 93 95 97 100 101 100 100 102 105 108 111 113 114 116 117 119 119 118 119 120 119 118 118 120 117 115
80 82 109 115 86 75 84 90 90 93 93 91 90 86 86 86 91 95 97 95 96 99 99 99 102 104 107 111 114 116 117 116 116 118 120 122 122 122 121 120 118 117 117 120
98 94 121 111 77 81 84 86 95 93 95 97 99 99 99 99 102 101 100 99 99 101 101 102 102 103 104 107 110 115 117 118 120 122 123 122 122 120 122 122 121 123 125 126
Wind_Speed_850mb
40 47 46 48 53 52 48 50 41 55 61 52 33 39 47 52 63 66 69 66 60 62 69 73 75 65 64 68 58 60 64 57 55 46 40 37 34 28 25 27 33 38 47 46
40 46 51 56 52 50 53 51 41 43 48 42 58 60 48 65 67 70 66 59 63 71 74 80 78 75 69 62 65 55 63 63 56 48 42 41 37 30 29 30 44 39 45 52
26 35 44 38 32 17 27 35 31 29 43 46 41 34 62 67 75 73 57 57 72 78 81 83 80 76 72 62 56 64 58 61 55 49 46 42 37 34 32 39 41 42 48 52
16 34 24 13 19 32 23 30 35 41 43 24 48 60 71 75 70 54 54 77 83 84 86 85 83 68 75 62 52 57 61 58 55 53 47 42 40 39 38 39 43 46 49 46
10 21 41 36 15 8 8 27 40 25 23 48 62 60 67 51 49 62 82 85 83 83 82 85 77 78 69 66 48 58 57 54 53 49 46 41 41 53 51 51 49 51 54 46
12 14 19 17 15 2 19 30 7 24 24 36 55 30 39 73 72 83 81 81 79 83 78 78 78 68 63 55 51 58 52 48 47 45 43 41 48 50 49 52 58 62 57 40
23 18 24 20 18 10 19 22 58 43 48 51 29 34 80 80 89 84 84 82 76 78 78 74 70 62 57 47 53 59 43 40 41 40 39 44 46 50 52 65 70 68 65 65
16 15 19 16 15 6 32 41 32 46 54 54 64 71 72 75 74 75 74 73 69 71 71 68 57 51 49 47 37 34 48 41 39 40 41 44 46 61 70 76 76 76 79 88
9 10 35 68 59 52 33 31 37 56 53 59 67 68 72 74 76 69 75 64 61 58 63 57 49 48 52 45 36 26 40 42 48 50 55 63 64 74 79 81 85 88 95 101
12 26 40 63 70 50 33 48 60 50 54 60 63 67 69 70 64 73 61 57 55 54 48 48 42 34 46 41 45 37 64 64 73 75 79 80 80 81 84 89 91 99 100 103
37 47 55 54 36 34 45 48 40 48 50 52 59 64 64 63 69 58 52 48 44 35 39 38 41 10 28 49 59 76 82 86 85 88 90 93 90 86 86 84 91 108 103 103
27 56 48 48 29 48 37 39 41 46 51 47 56 57 63 57 52 46 38 36 31 36 34 42 67 85 98 98 88 96 88 85 88 88 90 90 93 93 81 89 99 106 109 112
50 55 49 32 45 39 22 42 40 39 44 52 52 52 47 50 42 29 27 27 38 41 36 47 75 89 102 103 96 89 90 88 88 89 90 94 94 101 116 105 109 105 107 104
43 16 21 23 29 23 39 35 33 36 38 43 43 41 41 42 35 28 28 31 45 47 40 51 73 78 81 83 84 87 88 90 94 97 101 107 107 116 134 135 116 102 99 105
14 19 14 30 23 30 31 30 33 36 41 41 35 36 37 36 37 29 29 37 53 55 63 55 69 74 74 73 79 87 94 98 101 107 113 121 127 133 134 126 117 109 95 82
26 26 27 24 24 29 28 30 31 38 35 33 34 35 35 36 38 40 47 51 60 63 66 75 76 78 83 85 93 107 111 113 121 132 132 124 130 133 122 115 110 105 94 84
32 36 26 29 29 25 26 27 31 30 29 32 32 36 33 47 48 57 63 67 69 71 73 79 86 83 85 92 105 118 125 128 132 128 125 114 105 113 102 93 100 96 77 67
30 22 27 19 21 24 27 30 28 30 29 31 34 36 48 55 60 65 71 74 79 81 79 82 87 94 103 110 124 132 133 122 121 101 92 95 93 91 99 82 75 76 71 62
33 21 20 20 22 24 27 28 28 30 32 37 39 48 56 64 72 75 76 85 91 93 85 95 95 102 107 114 128 129 112 93 90 88 94 99 84 72 72 75 73 67 59 54
24 21 21 23 27 27 28 28 28 35 36 45 49 62 64 67 75 77 83 83 84 82 75 78 86 89 92 89 84 84 93 98 94 84 76 70 68 69 68 64 61 58 55 51
27 24 22 27 27 30 31 32 37 41 42 54 58 67 63 60 57 57 63 66 60 66 73 77 81 84 89 95 94 88 78 74 73 71 69 73 70 66 62 58 57 54 52 50
29 22 24 26 28 31 38 43 34 39 46 51 59 51 61 60 57 61 58 53 50 57 62 65 67 71 74 71 69 67 65 66 70 70 67 64 64 61 58 56 54 52 50 47
18 25 21 26 29 39 42 43 53 55 55 53 51 46 55 57 55 50 57 52 56 63 67 71 71 68 65 61 61 61 61 61 60 59 59 59 57 56 55 53 50 48 47 46
18 22 22 27 36 47 43 40 43 47 52 46 46 49 53 63 64 66 70 71 68 66 65 63 64 60 58 57 57 56 56 56 56 56 56 55 53 53 52 49 47 45 45 43
17 20 29 35 51 41 28 32 36 43 41 44 43 47 52 62 67 67 69 66 62 61 62 62 57 54 51 52 52 51 51 52 52 52 52 52 51 49 47 45 43 42 41 39
25 25 33 49 31 29 30 34 39 39 38 39 42 42 48 49 47 45 50 48 47 49 48 47 45 46 47 48 49 48 49 52 50 49 48 47 47 45 44 44 42 39 37 35
28 34 44 31 24 27 32 36 39 39 38 37 39 37 41 39 39 37 38 40 41 43 43 42 41 44 46 46 45 43 44 45 45 43 43 42 42 43 40 38 37 35 35 37
Wind_Direction_850mb
261 263 268 268 270 271 263 258 255 276 280 291 312 334 320 314 319 313 309 303 304 305 302 299 301 297 285 280 275 258 253 249 246 245 244 249 248 245 243 233 232 228 230 222
288 285 281 274 276 283 284 284 279 276 282 307 328 320 310 320 312 307 306 300 302 302 301 302 301 302 295 273 267 261 248 246 246 242 241 242 244 243 239 228 226 220 213 216
276 292 303 294 279 284 305 304 306 299 300 327 314 324 316 310 304 301 301 302 302 302 302 304 305 301 298 291 258 256 250 240 237 236 236 236 236 234 239 230 230 218 223 218
285 296 273 239 292 271 275 293 304 300 310 319 321 307 301 305 295 292 298 305 303 303 304 302 305 295 293 292 253 251 247 238 234 233 232 230 228 226 228 233 228 220 213 215
266 283 286 293 6 34 59 299 299 301 326 314 305 308 296 306 300 306 303 303 300 303 300 298 295 293 288 283 257 244 240 232 230 227 224 222 219 218 219 220 215 209 206 207
264 272 284 328 319 28 295 291 71 338 313 304 314 305 303 312 308 303 304 303 302 304 298 295 293 293 288 275 268 231 233 227 222 217 217 216 220 212 209 209 203 190 183 186
244 252 265 295 65 301 279 320 330 326 310 300 291 288 295 304 306 309 309 307 305 303 300 296 295 290 283 274 264 224 215 217 211 211 211 208 204 206 206 193 181 172 164 159
247 243 264 55 338 242 302 308 312 307 299 296 297 300 303 303 305 306 308 310 313 308 302 301 297 286 272 264 258 233 201 204 203 210 205 196 200 184 182 179 170 159 154 151
246 255 303 308 302 306 304 313 316 303 301 303 302 304 307 310 311 313 317 321 319 318 311 304 297 281 261 248 231 205 193 204 192 185 181 177 182 174 168 165 159 151 152 146
282 260 285 303 299 304 321 322 310 299 304 307 307 309 312 314 315 324 328 327 326 323 323 322 318 288 246 225 193 179 160 163 162 159 154 153 156 160 160 160 156 154 148 143
267 279 287 290 299 311 319 317 302 309 311 310 312 314 319 319 326 333 333 328 334 348 352 354 22 328 200 161 163 156 150 144 144 147 147 144 139 141 151 151 159 159 148 141
272 282 287 295 316 322 314 316 313 317 318 319 322 324 325 332 341 344 341 347 11 24 25 56 72 79 122 144 155 150 145 141 142 142 142 144 143 133 134 141 146 150 140 130
280 284 292 305 319 321 300 323 325 320 324 327 331 333 339 347 0 5 8 22 45 46 61 83 95 104 122 141 148 146 141 138 135 136 134 136 140 141 130 125 126 123 124 124
319 299 301 329 318 316 327 335 327 330 333 339 334 343 354 7 29 32 38 46 69 73 87 97 105 104 121 135 135 133 131 132 130 128 128 125 124 123 129 126 122 120 121 121
350 351 317 315 327 342 341 338 340 344 351 350 356 1 11 29 50 59 68 76 82 84 90 104 105 105 119 125 126 127 125 121 123 124 125 124 122 123 122 123 123 121 118 118
348 341 330 329 338 345 347 350 352 0 2 9 12 21 35 64 74 80 86 88 85 85 95 104 109 111 118 129 128 119 120 124 124 124 122 120 122 121 120 119 118 121 124 122
1 340 358 341 346 352 358 1 10 13 31 24 33 32 60 79 83 81 83 89 92 95 101 107 110 120 123 125 125 123 124 124 125 122 119 116 116 120 118 119 121 117 110 106
350 10 358 8 2 3 9 17 24 43 41 44 45 62 75 77 79 81 84 95 97 95 100 108 116 120 119 120 125 127 126 119 118 112 115 115 115 116 117 112 113 112 113 114
353 14 19 20 20 23 27 36 40 43 68 69 65 78 76 84 85 83 92 93 89 88 88 100 109 114 114 119 122 123 114 109 111 113 115 114 110 113 114 114 113 111 109 108
15 24 26 37 35 43 46 51 43 65 70 75 87 83 75 78 78 81 86 83 91 89 92 97 100 100 103 104 105 111 113 110 111 113 115 116 117 117 116 113 112 111 110 110
19 31 44 39 49 51 60 58 71 68 81 93 90 88 85 78 83 85 86 89 95 97 96 99 101 105 108 108 106 110 111 111 113 114 117 117 116 115 115 115 115 115 114 110
26 49 41 46 62 66 73 63 70 84 86 89 103 91 84 73 76 80 80 85 98 103 104 105 108 111 112 111 111 111 113 115 115 115 116 117 118 118 117 118 117 116 115 113
52 36 53 65 73 90 70 73 73 77 84 81 100 91 79 85 80 81 85 90 99 104 105 106 109 110 109 110 111 112 114 115 116 117 117 118 118 119 119 118 118 117 116 114
52 44 70 87 99 86 75 68 71 80 82 79 79 83 86 91 82 88 100 103 103 103 104 105 107 108 108 110 111 112 113 114 116 118 119 118 118 118 117 118 118 118 116 116
70 60 98 101 100 86 85 87 83 81 84 87 82 81 82 88 91 94 93 95 97 100 101 100 100 102 105 108 111 113 114 116 117 119 119 118 119 120 119 118 118 120 117 115
80 82 109 115 86 75 84 90 90 93 93 91 90 86 86 86 91 95 97 95 96 99 99 99 102 104 107 111 114 116 117 116 116 118 120 122 122 122 121 120 118 117 117 120
98 94 121 111 77 81 84 86 95 93 95 97 99 99 99 99 102 101 100 99 99 101 101 102 102 103 104 107 110 115 117 118 120 122 123 122 122 120 122 122 121 123 125 126